C4984 Weather Reports


Display with metric or nautical units.
time (UTC)temp
F
wind
direction
speed
MPH
gust
MPH
rain 1hr
in
rain 24hr
in
rain mn
in
humidity
%
barometer
mb
20260906231322 77 12 1.0 2.0 0.00 0.00 0.00 79 1008.3
20260906230248 78 23 0.0 2.0 0.00 0.00 0.00 78 1008.3
20260906225307 79 32 1.0 2.0 0.00 0.00 0.00 77 1008.2
20260906224313 79 11 0.0 0.0 0.00 0.00 0.00 77 1007.8
20260906222236 79 6 0.0 4.0 0.00 0.00 0.00 76 1008.0
20260906221240 80 3 2.0 4.0 0.00 0.00 0.00 73 1008.0
20260906220240 80 1 1.0 4.0 0.00 0.00 0.00 73 1008.0
20260906215246 80 13 1.0 4.0 0.00 0.00 0.00 73 1008.0
20260906214242 81 15 1.0 3.0 0.00 0.00 0.00 72 1008.1
20260906213304 81 11 1.0 3.0 0.00 0.00 0.00 72 1008.1
20260906211108 80 14 0.0 2.0 0.00 0.00 0.00 72 1008.0
20260906210037 80 15 2.0 5.0 0.00 0.00 0.00 70 1008.0
20260906205101 80 7 2.0 5.0 0.00 0.00 0.00 71 1008.1
20260906204109 80 17 2.0 5.0 0.00 0.00 0.00 70 1007.9
20260906203131 80 8 1.0 5.0 0.00 0.00 0.00 69 1007.9
20260906202121 79 2 1.0 3.0 0.00 0.00 0.00 74 1007.9
20260906201119 78 8 2.0 4.0 0.00 0.00 0.00 73 1008.3
20260906195024 79 6 2.0 5.0 0.00 0.00 0.00 73 1008.4
20260906193948 79 1 2.0 5.0 0.00 0.00 0.00 77 1008.6
20260906193012 79 6 1.0 6.0 0.00 0.00 0.00 75 1008.6
20260906190835 80 26 2.0 5.0 0.00 0.00 0.00 79 1008.8
20260906185802 78 12 1.0 4.0 0.00 0.00 0.00 85 1008.8
20260906184800 77 4 2.0 4.0 0.00 0.00 0.00 87 1008.8
20260906183733 76 0 1.0 3.0 0.00 0.00 0.00 87 1008.9
20260906182737 77 1 1.0 4.0 0.00 0.00 0.00 84 1008.6
20260906181801 78 5 2.0 4.0 0.00 0.00 0.00 82 1008.6
20260906180737 79 18 2.0 5.0 0.00 0.00 0.00 82 1008.7
20260906174610 79 1 1.0 4.0 0.00 0.00 0.00 82 1008.8
20260906173600 79 3 2.0 4.0 0.00 0.00 0.00 81 1008.6
20260906172607 79 10 1.0 4.0 0.00 0.00 0.00 83 1008.5
20260906171538 80 1 1.0 4.0 0.00 0.00 0.00 82 1008.5
20260906170519 79 8 1.0 4.0 0.00 0.00 0.00 85 1008.5
20260906165521 78 1 2.0 5.0 0.00 0.00 0.00 85 1008.7
20260906164506 79 20 1.0 6.0 0.00 0.00 0.00 85 1008.7
20260906163504 79 7 2.0 6.0 0.00 0.00 0.00 84 1008.8
20260906162510 79 359 1.0 4.0 0.00 0.00 0.00 86 1008.8
20260906161525 78 39 1.0 4.0 0.00 0.00 0.00 89 1008.8
20260906160528 77 1 2.0 4.0 0.00 0.00 0.00 87 1008.8
20260906155536 78 1 1.0 3.0 0.00 0.00 0.00 87 1009.0
20260906154517 78 1 1.0 3.0 0.00 0.00 0.00 86 1009.0
20260906152337 79 4 1.0 4.0 0.00 0.00 0.00 85 1009.0
20260906151356 79 359 1.0 4.0 0.00 0.00 0.00 88 1008.9
20260906150400 78 16 1.0 4.0 0.00 0.00 0.00 88 1008.9
20260906145355 77 13 1.0 3.0 0.00 0.00 0.00 92 1008.9
20260906144410 76 17 1.0 2.0 0.00 0.00 0.00 92 1008.9
20260906143402 76 20 0.0 3.0 0.00 0.00 0.00 93 1008.9
20260906141245 75 1 1.0 3.0 0.00 0.00 0.00 94 1008.4
20260906140215 75 1 1.0 3.0 0.00 0.00 0.00 96 1008.4
20260906135147 74 1 0.0 2.0 0.00 0.00 0.00 97 1008.3
20260906134206 74 11 0.0 0.0 0.00 0.00 0.00 98 1008.2
20260906133157 73 13 1.0 3.0 0.00 0.00 0.00 99 1008.2
20260906132127 73 21 0.0 2.0 0.00 0.00 0.00 99 1007.9
20260906131117 73 1 0.0 2.0 0.00 0.00 0.00 99 1008.2
20260906130043 72 13 0.0 2.0 0.00 0.00 0.00 99 1008.2
20260906125010 72 20 0.0 2.0 0.00 0.00 0.00 100 1008.2
20260906123953 72 29 0.0 2.0 0.00 0.00 0.00 100 1008.1
20260906122939 72 19 0.0 2.0 0.00 0.00 0.00 100 1008.1
20260906121913 71 20 0.0 1.0 0.00 0.00 0.00 100 1007.9
20260906115801 71 215 0.0 2.0 0.00 0.00 0.00 99 1007.9
20260906114741 71 131 0.0 0.0 0.00 0.00 0.00 99 1007.9
20260906113746 71 49 0.0 1.0 0.00 0.00 0.00 99 1007.8
20260906112749 71 98 0.0 0.0 0.00 0.00 0.00 99 1007.8
20260906110603 71 16 0.0 0.0 0.00 0.00 0.00 99 1007.4
20260906105607 71 16 0.0 0.0 0.00 0.00 0.00 99 1007.3
20260906104615 71 16 0.0 0.0 0.00 0.00 0.00 99 1007.3
20260906103557 71 16 0.0 1.0 0.00 0.00 0.00 99 1006.9
20260906102558 71 16 0.0 1.0 0.00 0.00 0.00 99 1006.8
20260906100446 71 20 0.0 2.0 0.00 0.00 0.00 99 1006.5
20260906095500 71 7 0.0 2.0 0.00 0.00 0.00 99 1006.4
20260906093343 71 5 0.0 2.0 0.00 0.00 0.00 99 1006.3
20260906092317 71 15 0.0 2.0 0.00 0.00 0.00 99 1006.2
20260906091313 71 13 0.0 2.0 0.00 0.00 0.00 99 1006.1
20260906090257 71 30 0.0 1.0 0.00 0.00 0.00 99 1006.1
20260906085310 72 25 0.0 1.0 0.00 0.00 0.00 99 1006.0
20260906084239 72 13 0.0 1.0 0.00 0.00 0.00 99 1006.2
20260906083216 72 13 0.0 0.0 0.00 0.00 0.00 99 1006.2
20260906082232 72 13 0.0 1.0 0.00 0.00 0.00 99 1006.2
20260906081212 72 31 0.0 1.0 0.00 0.00 0.00 99 1005.8
20260906080159 71 83 0.0 2.0 0.00 0.00 0.00 99 1005.8
20260906072901 71 73 0.0 1.0 0.00 0.00 0.00 99 1005.7
20260906071840 71 15 0.0 0.0 0.00 0.00 0.00 99 1005.7
20260906070849 71 15 0.0 0.0 0.00 0.00 0.00 99 1005.6
20260906065903 71 15 0.0 0.0 0.00 0.00 0.00 99 1005.6
20260906064909 71 15 0.0 0.0 0.00 0.00 0.00 99 1005.6
20260906063847 71 15 0.0 0.0 0.00 0.00 0.00 99 1005.7
20260906062856 72 15 0.0 0.0 0.00 0.00 0.00 99 1005.6
20260906061903 72 15 0.0 0.0 0.00 0.00 0.00 99 1005.6
20260906060854 72 15 0.0 0.0 0.00 0.00 0.00 99 1005.5
20260906055822 72 15 0.0 0.0 0.00 0.00 0.00 99 1005.5
20260906054805 72 15 0.0 0.0 0.00 0.00 0.00 99 1005.5
20260906053800 72 15 0.0 0.0 0.00 0.00 0.00 99 1005.9
20260906052755 72 15 0.0 0.0 0.00 0.00 0.00 99 1005.9
20260906051730 72 15 0.0 0.0 0.00 0.00 0.00 99 1005.9
20260906045532 72 15 0.0 0.0 0.00 0.00 0.00 98 1005.9
20260906044549 72 15 0.0 0.0 0.00 0.00 0.00 98 1005.9
20260906043524 73 15 0.0 1.0 0.00 0.00 0.00 99 1005.8
20260906042515 73 15 0.0 1.0 0.00 0.00 0.00 98 1006.0
20260906041527 73 15 0.0 0.0 0.00 0.00 0.00 98 1006.0
20260906040539 73 15 0.0 1.0 0.00 0.00 0.00 98 1005.9
20260906035526 73 15 0.0 1.0 0.00 0.00 0.00 98 1006.0
20260906033419 73 15 0.0 1.0 0.00 0.00 0.00 98 1006.0
20260906032422 73 15 0.0 1.0 0.00 0.00 0.00 98 1006.2
20260906031412 73 15 0.0 1.0 0.00 0.00 0.00 98 1006.2
20260906030347 73 15 0.0 1.0 0.00 0.00 0.00 98 1006.2
20260906025346 73 15 0.0 1.0 0.00 0.00 0.00 98 1006.2
20260906024343 73 15 0.0 1.0 0.00 0.00 0.00 98 1006.2
20260906023338 74 15 0.0 1.0 0.00 0.00 0.00 98 1006.2
20260906022357 74 15 0.0 1.0 0.00 0.00 0.00 98 1006.3
20260906020222 74 203 0.0 1.0 0.00 0.00 0.00 98 1006.4
20260906015210 74 203 0.0 0.0 0.00 0.00 0.00 98 1006.6
20260906014201 74 203 0.0 0.0 0.00 0.00 0.00 98 1006.5
20260906012027 74 203 0.0 0.0 0.00 0.00 0.00 98 1006.6
20260906011034 74 203 0.0 0.0 0.00 0.00 0.00 98 1006.4
20260906004945 75 203 0.0 0.0 0.00 0.00 0.00 98 1006.2
20260906003956 75 203 0.0 0.0 0.00 0.00 0.00 98 1006.2
20260906001824 75 203 0.0 0.0 0.00 0.00 0.00 98 1005.7
20260906000754 75 203 0.0 0.0 0.00 0.00 0.00 97 1005.4
20260905235721 76 203 0.0 0.0 0.00 0.00 0.00 98 1005.2
20260905234726 76 203 0.0 0.0 0.00 0.00 0.00 98 1005.2
20260905233712 76 203 0.0 0.0 0.00 0.00 0.00 98 1004.8